QPF
0.00 0.00 0.00 0.00 0.00 0.00 0.00 0.00 0.00 0.00 0.00 0.00 0.00 0.00 0.00 0.00 0.00 0.00 0.00 0.00 0.00 0.00 0.00 0.00 0.00 0.00 0.00 0.00 0.00 0.00 0.00 0.00 0.00 0.00 0.00 0.00 0.00 0.00 0.00 0.00 0.00 0.00 0.00 0.00
0.00 0.00 0.00 0.00 0.00 0.00 0.00 0.00 0.00 0.00 0.00 0.00 0.00 0.00 0.00 0.00 0.00 0.00 0.00 0.00 0.00 0.00 0.00 0.00 0.00 0.00 0.00 0.00 0.00 0.00 0.00 0.00 0.00 0.00 0.00 0.00 0.00 0.00 0.00 0.00 0.00 0.00 0.00 0.00
0.00 0.00 0.00 0.00 0.00 0.00 0.00 0.00 0.00 0.00 0.00 0.00 0.00 0.00 0.00 0.00 0.00 0.00 0.00 0.00 0.00 0.00 0.00 0.00 0.00 0.00 0.00 0.00 0.00 0.00 0.00 0.00 0.00 0.00 0.00 0.00 0.00 0.00 0.00 0.00 0.00 0.00 0.00 0.00
0.00 0.00 0.00 0.00 0.00 0.00 0.00 0.00 0.00 0.00 0.00 0.00 0.00 0.00 0.00 0.00 0.00 0.00 0.00 0.00 0.00 0.00 0.00 0.00 0.00 0.00 0.00 0.00 0.00 0.00 0.00 0.00 0.00 0.00 0.00 0.00 0.00 0.00 0.00 0.00 0.00 0.00 0.00 0.00
0.00 0.00 0.00 0.00 0.00 0.00 0.00 0.00 0.00 0.00 0.00 0.00 0.00 0.00 0.00 0.00 0.00 0.00 0.00 0.00 0.00 0.00 0.00 0.00 0.00 0.00 0.00 0.00 0.00 0.00 0.00 0.00 0.00 0.00 0.00 0.00 0.00 0.00 0.00 0.00 0.00 0.00 0.00 0.00
0.00 0.00 0.00 0.00 0.00 0.00 0.00 0.00 0.00 0.00 0.00 0.00 0.00 0.00 0.00 0.00 0.00 0.00 0.00 0.00 0.00 0.00 0.00 0.00 0.00 0.00 0.00 0.00 0.00 0.00 0.00 0.00 0.00 0.00 0.00 0.00 0.00 0.00 0.00 0.00 0.00 0.00 0.00 0.00
0.00 0.00 0.00 0.00 0.00 0.00 0.00 0.00 0.00 0.00 0.00 0.00 0.00 0.00 0.00 0.00 0.00 0.00 0.00 0.00 0.00 0.00 0.00 0.00 0.00 0.00 0.00 0.00 0.00 0.00 0.00 0.00 0.00 0.00 0.00 0.00 0.00 0.00 0.00 0.00 0.00 0.00 0.00 0.00
0.00 0.00 0.00 0.00 0.00 0.00 0.00 0.00 0.00 0.00 0.00 0.00 0.00 0.00 0.00 0.00 0.00 0.00 0.00 0.00 0.00 0.00 0.00 0.00 0.00 0.00 0.00 0.00 0.00 0.00 0.00 0.00 0.00 0.00 0.00 0.01 0.01 0.01 0.01 0.00 0.00 0.00 0.00 0.00
0.00 0.00 0.00 0.00 0.00 0.00 0.00 0.00 0.00 0.00 0.00 0.00 0.00 0.00 0.00 0.00 0.00 0.00 0.00 0.00 0.00 0.00 0.00 0.00 0.00 0.00 0.00 0.00 0.00 0.00 0.00 0.00 0.00 0.01 0.01 0.01 0.01 0.01 0.01 0.01 0.00 0.00 0.00 0.00
0.00 0.00 0.00 0.00 0.00 0.00 0.00 0.00 0.00 0.00 0.00 0.00 0.00 0.00 0.00 0.00 0.00 0.00 0.00 0.00 0.00 0.00 0.00 0.00 0.00 0.00 0.00 0.00 0.00 0.00 0.00 0.00 0.01 0.01 0.01 0.01 0.01 0.01 0.01 0.01 0.00 0.00 0.00 0.00
0.00 0.00 0.00 0.00 0.00 0.00 0.00 0.00 0.00 0.00 0.00 0.00 0.00 0.00 0.00 0.00 0.00 0.00 0.00 0.00 0.00 0.00 0.00 0.00 0.00 0.00 0.00 0.00 0.00 0.00 0.00 0.00 0.01 0.01 0.01 0.01 0.01 0.01 0.01 0.01 0.00 0.00 0.00 0.00
0.00 0.00 0.00 0.00 0.00 0.00 0.00 0.00 0.00 0.00 0.00 0.00 0.00 0.00 0.00 0.00 0.00 0.00 0.00 0.00 0.00 0.00 0.00 0.00 0.00 0.00 0.00 0.00 0.00 0.00 0.00 0.00 0.01 0.01 0.02 0.02 0.02 0.01 0.01 0.01 0.01 0.00 0.00 0.00
0.00 0.00 0.00 0.00 0.00 0.00 0.00 0.00 0.00 0.00 0.00 0.00 0.00 0.00 0.00 0.00 0.00 0.00 0.00 0.00 0.00 0.00 0.00 0.00 0.00 0.00 0.00 0.00 0.00 0.00 0.00 0.00 0.01 0.01 0.02 0.02 0.01 0.01 0.01 0.01 0.00 0.00 0.00 0.00
0.00 0.00 0.00 0.00 0.00 0.00 0.00 0.00 0.00 0.00 0.00 0.00 0.00 0.00 0.00 0.00 0.00 0.00 0.00 0.00 0.00 0.00 0.00 0.00 0.00 0.00 0.00 0.00 0.00 0.00 0.00 0.00 0.01 0.01 0.02 0.02 0.01 0.02 0.02 0.01 0.01 0.00 0.00 0.00
0.00 0.00 0.00 0.00 0.00 0.00 0.00 0.00 0.00 0.00 0.00 0.00 0.00 0.00 0.00 0.00 0.00 0.00 0.00 0.00 0.00 0.00 0.00 0.00 0.00 0.00 0.00 0.00 0.00 0.00 0.00 0.01 0.01 0.01 0.01 0.02 0.02 0.02 0.02 0.01 0.01 0.00 0.00 0.00
0.00 0.00 0.00 0.00 0.00 0.00 0.00 0.00 0.00 0.00 0.00 0.00 0.00 0.00 0.00 0.00 0.00 0.00 0.00 0.00 0.00 0.00 0.00 0.00 0.00 0.00 0.00 0.00 0.00 0.00 0.00 0.01 0.01 0.01 0.01 0.02 0.02 0.02 0.02 0.01 0.01 0.00 0.00 0.00
0.00 0.00 0.00 0.00 0.00 0.00 0.00 0.00 0.00 0.00 0.00 0.00 0.00 0.00 0.00 0.00 0.00 0.00 0.00 0.00 0.00 0.00 0.00 0.00 0.00 0.00 0.00 0.00 0.00 0.00 0.00 0.01 0.01 0.01 0.02 0.02 0.02 0.02 0.02 0.01 0.01 0.00 0.00 0.00
0.00 0.00 0.00 0.00 0.00 0.00 0.00 0.00 0.00 0.00 0.00 0.00 0.00 0.00 0.00 0.00 0.00 0.00 0.00 0.00 0.00 0.00 0.00 0.00 0.00 0.00 0.00 0.00 0.00 0.00 0.00 0.00 0.01 0.02 0.02 0.02 0.02 0.02 0.02 0.01 0.01 0.00 0.00 0.00
0.00 0.00 0.00 0.00 0.00 0.00 0.00 0.00 0.00 0.00 0.00 0.00 0.00 0.00 0.00 0.00 0.00 0.00 0.00 0.00 0.00 0.00 0.00 0.00 0.00 0.00 0.00 0.00 0.00 0.00 0.00 0.00 0.01 0.02 0.02 0.03 0.02 0.02 0.02 0.01 0.01 0.00 0.00 0.00
0.00 0.00 0.00 0.00 0.00 0.00 0.00 0.00 0.00 0.00 0.00 0.00 0.00 0.00 0.00 0.00 0.00 0.00 0.00 0.00 0.00 0.00 0.00 0.00 0.00 0.00 0.00 0.00 0.00 0.00 0.00 0.01 0.01 0.02 0.03 0.03 0.03 0.02 0.02 0.01 0.01 0.00 0.00 0.00
0.00 0.00 0.00 0.00 0.00 0.00 0.00 0.00 0.00 0.00 0.00 0.00 0.00 0.00 0.00 0.00 0.00 0.00 0.00 0.00 0.00 0.00 0.00 0.00 0.00 0.00 0.00 0.00 0.00 0.00 0.00 0.01 0.02 0.02 0.03 0.03 0.03 0.02 0.02 0.01 0.01 0.00 0.00 0.00
0.00 0.00 0.00 0.00 0.00 0.00 0.00 0.00 0.00 0.00 0.00 0.00 0.00 0.00 0.00 0.00 0.00 0.00 0.00 0.00 0.00 0.00 0.00 0.00 0.00 0.00 0.00 0.00 0.00 0.00 0.01 0.01 0.02 0.02 0.03 0.03 0.03 0.02 0.02 0.01 0.01 0.00 0.00 0.00
0.00 0.00 0.00 0.00 0.00 0.00 0.00 0.00 0.00 0.00 0.00 0.00 0.00 0.00 0.00 0.00 0.00 0.00 0.00 0.00 0.00 0.00 0.00 0.00 0.00 0.00 0.00 0.00 0.00 0.01 0.01 0.02 0.02 0.03 0.03 0.04 0.03 0.02 0.02 0.01 0.01 0.00 0.00 0.00
0.00 0.00 0.00 0.00 0.00 0.00 0.00 0.00 0.00 0.00 0.00 0.00 0.00 0.00 0.01 0.00 0.00 0.00 0.00 0.00 0.01 0.01 0.01 0.01 0.01 0.01 0.01 0.01 0.01 0.01 0.02 0.02 0.03 0.04 0.05 0.04 0.04 0.03 0.02 0.01 0.01 0.00 0.00 0.00
0.00 0.00 0.00 0.00 0.00 0.00 0.00 0.00 0.00 0.00 0.00 0.00 0.00 0.00 0.00 0.00 0.00 0.00 0.01 0.01 0.01 0.02 0.02 0.02 0.02 0.02 0.02 0.02 0.02 0.02 0.03 0.04 0.05 0.06 0.06 0.05 0.04 0.03 0.02 0.01 0.01 0.00 0.00 0.00
0.00 0.00 0.00 0.00 0.00 0.00 0.00 0.00 0.00 0.00 0.00 0.00 0.00 0.00 0.00 0.00 0.00 0.01 0.01 0.02 0.02 0.03 0.04 0.03 0.03 0.03 0.03 0.04 0.04 0.04 0.05 0.06 0.07 0.07 0.06 0.05 0.04 0.03 0.02 0.01 0.00 0.00 0.00 0.00
0.00 0.00 0.00 0.00 0.00 0.00 0.00 0.00 0.00 0.00 0.00 0.00 0.00 0.00 0.00 0.00 0.01 0.01 0.02 0.03 0.04 0.04 0.05 0.04 0.04 0.04 0.05 0.05 0.06 0.07 0.08 0.08 0.08 0.07 0.06 0.05 0.04 0.02 0.01 0.01 0.00 0.00 0.00 0.00
MSLP
1020.70 1020.46 1020.14 1019.74 1019.24 1018.61 1017.85 1016.94 1015.91 1014.78 1013.61 1012.47 1011.42 1010.54 1009.88 1009.47 1009.32 1009.40 1009.66 1010.06 1010.54 1011.05 1011.55 1012.05 1012.55 1013.05 1013.60 1014.21 1014.89 1015.63 1016.42 1017.23 1018.02 1018.75 1019.41 1019.97 1020.43 1020.79 1021.07 1021.26 1021.38 1021.42 1021.38 1021.24
1020.49 1020.07 1019.52 1018.87 1018.11 1017.25 1016.32 1015.31 1014.26 1013.20 1012.18 1011.23 1010.40 1009.73 1009.24 1008.95 1008.84 1008.90 1009.09 1009.38 1009.73 1010.11 1010.51 1010.93 1011.39 1011.89 1012.46 1013.09 1013.81 1014.58 1015.40 1016.23 1017.03 1017.77 1018.45 1019.02 1019.50 1019.89 1020.19 1020.40 1020.53 1020.57 1020.51 1020.36
1020.30 1019.71 1018.96 1018.09 1017.12 1016.07 1015.00 1013.92 1012.88 1011.89 1011.00 1010.22 1009.58 1009.09 1008.74 1008.53 1008.45 1008.47 1008.57 1008.74 1008.95 1009.20 1009.49 1009.83 1010.23 1010.71 1011.27 1011.93 1012.67 1013.46 1014.30 1015.14 1015.96 1016.73 1017.43 1018.04 1018.55 1018.98 1019.31 1019.55 1019.70 1019.75 1019.70 1019.54
1020.08 1019.34 1018.44 1017.40 1016.27 1015.09 1013.93 1012.82 1011.80 1010.90 1010.12 1009.49 1009.01 1008.65 1008.40 1008.24 1008.15 1008.12 1008.13 1008.17 1008.24 1008.36 1008.54 1008.79 1009.13 1009.57 1010.11 1010.76 1011.50 1012.31 1013.15 1014.01 1014.85 1015.64 1016.37 1017.02 1017.58 1018.06 1018.45 1018.73 1018.91 1018.99 1018.95 1018.80
1019.73 1018.89 1017.87 1016.72 1015.50 1014.27 1013.07 1011.97 1010.99 1010.17 1009.50 1009.00 1008.62 1008.36 1008.18 1008.04 1007.94 1007.84 1007.76 1007.69 1007.64 1007.64 1007.70 1007.86 1008.12 1008.51 1009.02 1009.64 1010.36 1011.16 1012.00 1012.86 1013.71 1014.52 1015.29 1015.99 1016.61 1017.15 1017.59 1017.93 1018.16 1018.27 1018.25 1018.12
1019.15 1018.24 1017.17 1015.98 1014.73 1013.50 1012.32 1011.26 1010.36 1009.62 1009.05 1008.64 1008.36 1008.16 1008.02 1007.89 1007.76 1007.61 1007.44 1007.27 1007.11 1007.01 1006.97 1007.04 1007.23 1007.56 1008.01 1008.60 1009.28 1010.05 1010.87 1011.72 1012.57 1013.41 1014.21 1014.95 1015.62 1016.22 1016.72 1017.12 1017.39 1017.55 1017.57 1017.45
1018.27 1017.33 1016.25 1015.08 1013.87 1012.69 1011.59 1010.61 1009.80 1009.15 1008.67 1008.34 1008.12 1007.97 1007.84 1007.71 1007.55 1007.35 1007.12 1006.87 1006.63 1006.44 1006.33 1006.32 1006.44 1006.70 1007.10 1007.63 1008.27 1009.00 1009.79 1010.62 1011.47 1012.31 1013.13 1013.91 1014.62 1015.26 1015.81 1016.26 1016.58 1016.78 1016.83 1016.76
1017.06 1016.12 1015.09 1013.99 1012.88 1011.80 1010.81 1009.95 1009.23 1008.68 1008.28 1008.02 1007.84 1007.71 1007.60 1007.45 1007.27 1007.03 1006.75 1006.45 1006.15 1005.90 1005.72 1005.66 1005.71 1005.91 1006.25 1006.73 1007.32 1008.01 1008.77 1009.58 1010.41 1011.25 1012.08 1012.87 1013.60 1014.27 1014.85 1015.33 1015.69 1015.92 1016.02 1015.99
1015.58 1014.68 1013.73 1012.75 1011.77 1010.83 1009.99 1009.25 1008.66 1008.20 1007.87 1007.65 1007.50 1007.39 1007.26 1007.11 1006.90 1006.64 1006.32 1005.98 1005.65 1005.35 1005.12 1005.01 1005.01 1005.16 1005.45 1005.87 1006.42 1007.07 1007.80 1008.58 1009.40 1010.23 1011.05 1011.84 1012.58 1013.25 1013.84 1014.34 1014.72 1014.98 1015.12 1015.14
1013.95 1013.13 1012.29 1011.45 1010.64 1009.87 1009.18 1008.59 1008.11 1007.74 1007.47 1007.28 1007.14 1007.02 1006.88 1006.71 1006.47 1006.18 1005.84 1005.47 1005.10 1004.77 1004.51 1004.34 1004.31 1004.41 1004.65 1005.03 1005.55 1006.16 1006.87 1007.63 1008.44 1009.25 1010.06 1010.84 1011.56 1012.23 1012.81 1013.30 1013.69 1013.98 1014.16 1014.23
1012.35 1011.63 1010.93 1010.26 1009.62 1009.04 1008.51 1008.05 1007.68 1007.38 1007.15 1006.97 1006.83 1006.68 1006.52 1006.30 1006.04 1005.71 1005.34 1004.94 1004.53 1004.17 1003.87 1003.66 1003.58 1003.64 1003.84 1004.19 1004.68 1005.27 1005.96 1006.72 1007.51 1008.32 1009.11 1009.87 1010.58 1011.22 1011.78 1012.26 1012.65 1012.96 1013.17 1013.32
1010.95 1010.36 1009.83 1009.33 1008.88 1008.46 1008.08 1007.75 1007.45 1007.21 1007.00 1006.81 1006.64 1006.45 1006.24 1005.98 1005.66 1005.30 1004.88 1004.44 1003.99 1003.58 1003.23 1002.97 1002.84 1002.85 1003.02 1003.34 1003.80 1004.39 1005.07 1005.83 1006.62 1007.42 1008.21 1008.95 1009.64 1010.26 1010.80 1011.26 1011.65 1011.97 1012.23 1012.44
1009.90 1009.46 1009.09 1008.77 1008.48 1008.22 1007.97 1007.73 1007.49 1007.27 1007.05 1006.84 1006.62 1006.37 1006.10 1005.78 1005.41 1004.98 1004.51 1004.01 1003.51 1003.03 1002.62 1002.31 1002.12 1002.08 1002.20 1002.48 1002.93 1003.50 1004.19 1004.95 1005.75 1006.56 1007.34 1008.08 1008.75 1009.35 1009.87 1010.33 1010.72 1011.06 1011.36 1011.63
1009.25 1008.96 1008.75 1008.60 1008.46 1008.32 1008.17 1007.99 1007.78 1007.56 1007.31 1007.05 1006.76 1006.45 1006.10 1005.71 1005.27 1004.78 1004.24 1003.68 1003.11 1002.57 1002.08 1001.69 1001.43 1001.33 1001.40 1001.65 1002.07 1002.63 1003.32 1004.08 1004.89 1005.71 1006.50 1007.23 1007.90 1008.49 1009.00 1009.46 1009.86 1010.23 1010.57 1010.90
1008.99 1008.85 1008.79 1008.77 1008.75 1008.70 1008.60 1008.45 1008.24 1007.98 1007.68 1007.35 1007.00 1006.61 1006.19 1005.72 1005.22 1004.66 1004.06 1003.43 1002.79 1002.18 1001.62 1001.15 1000.82 1000.64 1000.65 1000.85 1001.24 1001.78 1002.46 1003.23 1004.04 1004.87 1005.66 1006.40 1007.06 1007.65 1008.17 1008.63 1009.05 1009.45 1009.84 1010.23
1009.01 1009.01 1009.07 1009.15 1009.21 1009.21 1009.12 1008.96 1008.72 1008.41 1008.04 1007.64 1007.21 1006.75 1006.26 1005.74 1005.17 1004.57 1003.91 1003.23 1002.53 1001.84 1001.21 1000.68 1000.27 1000.03 999.97 1000.12 1000.46 1000.98 1001.64 1002.39 1003.20 1004.02 1004.82 1005.55 1006.22 1006.81 1007.33 1007.80 1008.24 1008.68 1009.12 1009.57
1009.20 1009.30 1009.45 1009.59 1009.68 1009.68 1009.58 1009.37 1009.07 1008.69 1008.25 1007.77 1007.27 1006.75 1006.21 1005.64 1005.04 1004.40 1003.72 1003.00 1002.26 1001.53 1000.85 1000.25 999.79 999.48 999.37 999.46 999.76 1000.23 1000.86 1001.59 1002.38 1003.18 1003.97 1004.69 1005.35 1005.94 1006.47 1006.96 1007.42 1007.89 1008.37 1008.88
1009.41 1009.58 1009.78 1009.93 1010.01 1009.97 1009.81 1009.54 1009.16 1008.70 1008.19 1007.64 1007.08 1006.52 1005.94 1005.35 1004.74 1004.09 1003.40 1002.67 1001.92 1001.17 1000.46 999.84 999.33 998.98 998.83 998.88 999.12 999.55 1000.14 1000.83 1001.58 1002.36 1003.12 1003.82 1004.47 1005.05 1005.58 1006.07 1006.56 1007.05 1007.58 1008.13
1009.54 1009.75 1009.94 1010.07 1010.09 1009.99 1009.74 1009.38 1008.92 1008.38 1007.79 1007.19 1006.59 1005.99 1005.41 1004.82 1004.21 1003.57 1002.90 1002.19 1001.45 1000.72 1000.01 999.38 998.87 998.50 998.32 998.33 998.54 998.93 999.47 1000.12 1000.83 1001.57 1002.28 1002.96 1003.58 1004.15 1004.67 1005.16 1005.66 1006.18 1006.74 1007.34
1009.56 1009.75 1009.90 1009.97 1009.90 1009.70 1009.37 1008.91 1008.36 1007.74 1007.10 1006.45 1005.82 1005.21 1004.62 1004.04 1003.46 1002.85 1002.21 1001.53 1000.83 1000.12 999.45 998.84 998.34 997.98 997.80 997.80 997.99 998.35 998.85 999.45 1000.12 1000.81 1001.49 1002.13 1002.72 1003.26 1003.77 1004.27 1004.77 1005.31 1005.89 1006.52
1009.45 1009.60 1009.67 1009.65 1009.48 1009.18 1008.74 1008.19 1007.56 1006.89 1006.20 1005.52 1004.87 1004.25 1003.67 1003.10 1002.53 1001.95 1001.34 1000.70 1000.04 999.38 998.75 998.18 997.72 997.39 997.22 997.23 997.42 997.77 998.24 998.82 999.45 1000.11 1000.75 1001.35 1001.91 1002.43 1002.93 1003.42 1003.93 1004.48 1005.08 1005.74
1009.25 1009.32 1009.30 1009.17 1008.90 1008.49 1007.97 1007.34 1006.65 1005.93 1005.21 1004.50 1003.84 1003.22 1002.63 1002.07 1001.51 1000.94 1000.35 999.74 999.12 998.50 997.91 997.39 996.97 996.69 996.56 996.59 996.80 997.15 997.62 998.19 998.80 999.43 1000.04 1000.63 1001.17 1001.68 1002.17 1002.66 1003.17 1003.73 1004.35 1005.03
1008.99 1008.97 1008.85 1008.61 1008.24 1007.75 1007.15 1006.46 1005.73 1004.98 1004.23 1003.52 1002.84 1002.21 1001.61 1001.04 1000.47 999.89 999.30 998.70 998.09 997.50 996.94 996.47 996.10 995.86 995.78 995.86 996.09 996.47 996.96 997.52 998.14 998.76 999.37 999.95 1000.49 1001.00 1001.49 1002.00 1002.52 1003.09 1003.72 1004.42
1008.69 1008.57 1008.35 1008.01 1007.56 1007.00 1006.34 1005.63 1004.87 1004.11 1003.36 1002.63 1001.95 1001.30 1000.68 1000.07 999.47 998.86 998.24 997.62 997.00 996.42 995.89 995.45 995.12 994.93 994.89 995.02 995.30 995.71 996.23 996.82 997.45 998.09 998.71 999.30 999.85 1000.38 1000.89 1001.42 1001.96 1002.55 1003.20 1003.91
1008.33 1008.12 1007.80 1007.38 1006.86 1006.25 1005.57 1004.85 1004.09 1003.33 1002.59 1001.86 1001.16 1000.49 999.83 999.18 998.53 997.87 997.20 996.54 995.90 995.31 994.78 994.36 994.07 993.92 993.93 994.11 994.44 994.89 995.45 996.07 996.73 997.39 998.04 998.66 999.24 999.80 1000.35 1000.90 1001.48 1002.09 1002.76 1003.48
1007.87 1007.57 1007.17 1006.69 1006.13 1005.50 1004.81 1004.09 1003.35 1002.61 1001.88 1001.15 1000.45 999.74 999.05 998.35 997.63 996.92 996.20 995.49 994.82 994.21 993.69 993.28 993.02 992.91 992.97 993.19 993.56 994.06 994.65 995.31 996.00 996.70 997.38 998.03 998.65 999.25 999.83 1000.42 1001.03 1001.68 1002.36 1003.10
1007.25 1006.87 1006.42 1005.89 1005.31 1004.67 1003.99 1003.29 1002.58 1001.86 1001.15 1000.44 999.72 999.00 998.27 997.52 996.76 995.99 995.23 994.49 993.79 993.17 992.66 992.27 992.04 991.97 992.07 992.33 992.75 993.28 993.91 994.60 995.32 996.04 996.75 997.43 998.09 998.72 999.34 999.96 1000.61 1001.28 1001.99 1002.74
Thickness
5623 5629 5624 5622 5626 5624 5617 5622 5618 5638 5644 5667 5678 5668 5662 5659 5655 5653 5650 5644 5635 5627 5618 5607 5596 5587 5576 5565 5552 5538 5523 5509 5496 5481 5464 5447 5431 5415 5399 5383 5368 5353 5338 5323
5614 5623 5616 5613 5626 5629 5627 5626 5628 5635 5646 5672 5668 5658 5651 5649 5646 5645 5644 5639 5633 5624 5614 5604 5595 5586 5574 5563 5550 5536 5522 5508 5493 5476 5460 5444 5429 5413 5397 5382 5366 5351 5336 5322
5595 5609 5609 5609 5635 5636 5630 5630 5628 5629 5649 5661 5652 5648 5644 5644 5640 5637 5636 5633 5628 5622 5614 5607 5597 5586 5575 5563 5547 5532 5520 5505 5489 5473 5457 5442 5427 5410 5395 5380 5364 5349 5336 5322
5577 5593 5589 5635 5646 5640 5633 5637 5635 5636 5645 5646 5642 5640 5639 5636 5632 5630 5629 5626 5623 5617 5610 5603 5594 5582 5571 5557 5543 5530 5517 5502 5486 5470 5455 5439 5423 5408 5394 5378 5363 5349 5336 5323
5562 5566 5589 5617 5634 5630 5620 5627 5639 5631 5636 5637 5630 5626 5631 5635 5628 5624 5622 5619 5615 5610 5604 5596 5587 5576 5563 5551 5538 5525 5513 5500 5485 5469 5452 5436 5420 5406 5392 5377 5363 5349 5337 5324
5551 5551 5571 5616 5630 5627 5617 5611 5634 5624 5620 5617 5610 5604 5615 5624 5621 5616 5612 5607 5603 5599 5592 5586 5578 5567 5555 5546 5534 5524 5515 5501 5484 5466 5450 5435 5421 5405 5391 5376 5363 5350 5338 5325
5548 5546 5577 5608 5615 5609 5594 5607 5618 5616 5610 5604 5593 5596 5603 5606 5604 5602 5599 5596 5592 5586 5581 5578 5568 5557 5548 5541 5534 5526 5511 5495 5479 5463 5448 5434 5418 5402 5388 5375 5362 5349 5337 5325
5537 5534 5565 5603 5592 5592 5600 5604 5602 5601 5600 5594 5589 5589 5589 5590 5590 5588 5585 5584 5581 5574 5573 5568 5558 5548 5542 5539 5533 5517 5502 5487 5472 5457 5443 5429 5413 5399 5386 5373 5360 5348 5335 5324
5559 5576 5590 5586 5586 5590 5587 5584 5585 5584 5584 5579 5576 5577 5579 5579 5579 5577 5574 5572 5569 5564 5562 5559 5550 5542 5538 5536 5522 5508 5494 5481 5467 5452 5437 5425 5411 5397 5384 5372 5360 5349 5336 5325
5553 5567 5575 5577 5575 5576 5576 5572 5572 5571 5569 5566 5563 5565 5565 5566 5565 5563 5562 5560 5557 5553 5550 5551 5545 5536 5534 5527 5514 5501 5488 5475 5461 5447 5433 5421 5408 5396 5384 5373 5360 5349 5338 5326
5556 5563 5563 5568 5568 5568 5566 5564 5562 5561 5559 5557 5554 5554 5554 5553 5553 5551 5549 5548 5545 5542 5542 5543 5539 5533 5527 5517 5506 5495 5484 5471 5458 5445 5432 5419 5407 5397 5386 5376 5364 5351 5340 5328
5558 5562 5555 5559 5558 5556 5554 5553 5551 5549 5548 5547 5542 5540 5540 5540 5540 5539 5538 5537 5534 5532 5531 5533 5531 5527 5520 5510 5500 5490 5479 5467 5455 5443 5430 5417 5405 5393 5385 5374 5365 5355 5344 5330
5556 5555 5552 5552 5548 5545 5542 5540 5538 5535 5533 5531 5529 5526 5524 5525 5526 5525 5525 5525 5524 5524 5525 5525 5521 5519 5512 5504 5495 5486 5478 5466 5454 5442 5429 5417 5405 5394 5382 5373 5365 5356 5346 5335
5547 5544 5542 5540 5537 5534 5531 5528 5524 5520 5516 5514 5513 5511 5509 5509 5511 5511 5513 5514 5514 5514 5515 5514 5512 5511 5506 5498 5489 5481 5471 5463 5451 5439 5428 5417 5406 5395 5385 5373 5361 5352 5344 5336
5536 5533 5531 5528 5524 5520 5516 5512 5508 5503 5502 5501 5500 5497 5497 5497 5499 5502 5504 5504 5504 5505 5507 5505 5504 5504 5498 5491 5483 5475 5465 5456 5447 5436 5424 5413 5403 5393 5383 5372 5362 5351 5339 5330
5526 5521 5517 5513 5509 5506 5502 5499 5495 5493 5491 5490 5489 5489 5489 5489 5491 5493 5495 5494 5493 5496 5498 5496 5496 5496 5491 5484 5477 5469 5460 5453 5442 5431 5420 5409 5399 5389 5380 5371 5361 5351 5340 5330
5511 5507 5504 5499 5496 5493 5489 5486 5484 5483 5481 5480 5481 5481 5481 5482 5484 5486 5488 5487 5485 5485 5486 5485 5487 5486 5482 5477 5470 5463 5454 5446 5438 5426 5415 5406 5397 5388 5380 5371 5362 5352 5342 5332
5500 5496 5493 5489 5483 5481 5479 5477 5475 5473 5472 5473 5473 5472 5472 5473 5475 5477 5477 5477 5476 5477 5478 5476 5475 5474 5471 5466 5460 5454 5446 5438 5432 5421 5410 5401 5393 5386 5378 5370 5362 5352 5341 5332
5486 5482 5479 5476 5473 5469 5467 5466 5465 5464 5464 5464 5463 5464 5463 5463 5463 5464 5465 5463 5462 5465 5469 5466 5465 5462 5458 5454 5450 5443 5436 5429 5423 5415 5405 5398 5389 5380 5373 5367 5360 5351 5341 5331
5471 5468 5466 5463 5461 5457 5456 5456 5455 5455 5455 5453 5453 5453 5454 5455 5454 5453 5452 5451 5451 5451 5453 5451 5448 5445 5442 5440 5438 5431 5425 5420 5414 5407 5400 5392 5386 5377 5370 5364 5358 5349 5341 5332
5457 5455 5453 5451 5451 5450 5448 5447 5446 5447 5447 5444 5442 5443 5444 5445 5443 5440 5439 5443 5446 5441 5437 5436 5432 5429 5426 5425 5424 5418 5413 5409 5405 5399 5394 5387 5382 5374 5368 5362 5355 5349 5341 5333
5444 5444 5443 5442 5441 5442 5441 5438 5437 5437 5437 5436 5434 5433 5433 5434 5433 5432 5430 5428 5430 5428 5424 5420 5416 5414 5412 5412 5409 5406 5402 5398 5395 5391 5386 5382 5377 5372 5366 5360 5355 5349 5341 5332
5435 5434 5433 5432 5432 5433 5432 5429 5428 5428 5427 5427 5425 5424 5423 5423 5421 5420 5424 5424 5418 5416 5412 5407 5405 5404 5403 5400 5397 5394 5391 5388 5385 5382 5379 5376 5373 5369 5364 5359 5354 5348 5340 5331
5424 5423 5422 5421 5420 5419 5421 5424 5421 5421 5419 5418 5417 5415 5413 5415 5417 5414 5412 5412 5410 5407 5402 5399 5397 5395 5394 5390 5387 5384 5381 5379 5376 5374 5372 5370 5367 5364 5360 5356 5351 5345 5338 5330
5413 5413 5411 5409 5410 5413 5415 5416 5415 5414 5414 5414 5413 5411 5407 5405 5405 5408 5405 5402 5400 5397 5393 5390 5389 5386 5384 5382 5379 5376 5374 5371 5369 5368 5367 5365 5363 5360 5356 5353 5349 5343 5337 5330
5405 5405 5405 5404 5404 5405 5406 5407 5408 5409 5408 5410 5410 5407 5405 5402 5399 5398 5396 5394 5389 5386 5382 5379 5376 5375 5374 5373 5372 5370 5368 5366 5364 5364 5362 5361 5359 5356 5354 5350 5346 5341 5335 5328
5397 5397 5397 5399 5400 5399 5399 5399 5400 5401 5401 5401 5404 5403 5400 5398 5395 5393 5390 5386 5382 5378 5374 5371 5369 5367 5366 5366 5364 5363 5362 5361 5360 5360 5359 5357 5356 5354 5351 5348 5344 5339 5333 5327